"Pseudo-MPEC" for CCDAJ52

Created 2024 Nov 30 20:31:08 UT using Find_Orb

Click here for an explanation of pseudo-MPECs

 
 Astrometry: 
     CCDAJ52*1C2024 11 29.21401603 52 42.064+00 52 10.24   ~BT5l 19.69GVNEOCPG96
     CCDAJ52 1C2024 11 29.21917103 52 45.462+00 52 47.10   ~BT5l 19.46GVNEOCPG96
     CCDAJ52 1C2024 11 29.22433403 52 48.839+00 53 24.32   ~BT5l 19.49GVNEOCPG96
     CCDAJ52 1C2024 11 29.22950203 52 52.244+00 54 01.22   ~BT5l 20.51GVNEOCPG96
     CCDAJ52 mC2024 11 29.26711903 53 16.780+00 58 31.20   ~BT6l 20.97GVNEOCPI52
     CCDAJ52 mC2024 11 29.26899603 53 18.010+00 58 43.50   ~BT6l 19.39GVNEOCPI52
     CCDAJ52 mC2024 11 29.27087103 53 19.260+00 58 57.60   ~BT6l 19.51GVNEOCPI52
     CCDAJ52 mC2024 11 29.29855603 53 37.252+01 02 14.42   ~BT7V 19.06GVNEOCPI52
     CCDAJ52 mC2024 11 29.30157803 53 39.260+01 02 36.64   ~BT7V 20.06GVNEOCPI52
     CCDAJ52 mC2024 11 29.30180603 53 39.332+01 02 38.26   ~BT7V 20.42GVNEOCPI52
     CCDAJ52 KB2024 11 29.75651 03 58 44.90 +01 55 15.8    ~BU52       VNEOCPP13
     CCDAJ52 KB2024 11 29.76904 03 58 52.90 +01 56 42.0    ~BU52 19.2 GVNEOCPP13
     CCDAJ52 KB2024 11 29.77623 03 58 57.39 +01 57 30.6    ~BU52 19.3 GVNEOCPP13
     CCDAJ52 KB2024 11 29.78743 03 59 04.52 +01 58 47.1    ~BU52       VNEOCPP13
     CCDAJ52 0B2024 11 29.90086304 00 25.123+02 13 42.39   ~BU72 19.6 VZNEOCPM49
     CCDAJ52 1C2024 11 29.90526004 00 27.850+02 11 48.10   ~BTMH 20.2 GXNEOCP033
     CCDAJ52 1C2024 11 29.90577004 00 28.159+02 11 51.70   ~BTMH 20.5 GXNEOCP033
     CCDAJ52 0B2024 11 29.90609304 00 28.287+02 14 17.34   ~BU72 20.4 VZNEOCPM49
     CCDAJ52 1C2024 11 29.90627004 00 28.480+02 11 55.00   ~BTMH 20.7 GXNEOCP033
     CCDAJ52 1C2024 11 29.90682004 00 28.829+02 11 58.70   ~BTMH 20.9 GXNEOCP033
     CCDAJ52 1C2024 11 29.90743004 00 29.207+02 12 02.80   ~BTMH 20.8 GXNEOCP033
     CCDAJ52 0B2024 11 29.91118604 00 31.390+02 14 51.61   ~BU72 19.5 VZNEOCPM49
     CCDAJ52 KB2024 11 29.92253 04 00 39.04 +02 13 49.5    ~BTNl       ZNEOCP185
     CCDAJ52 KC2024 11 29.92370504 00 39.47 +02 14 02.9    ~BTMl 19.1 GVNEOCP104
     CCDAJ52 KC2024 11 29.93123804 00 44.15 +02 14 53.1    ~BTMl 19.5 GVNEOCP104
     CCDAJ52 KC2024 11 29.93751504 00 48.00 +02 15 35.0    ~BTMl 19.3 GVNEOCP104
     CCDAJ52  C2024 11 29.94002 04 00 50.06 +02 15 52.6    ~BTNH 19.6 RXNEOCP511
     CCDAJ52 KB2024 11 29.94096 04 00 50.42 +02 15 53.5    ~BTNl 19.8 VZNEOCP185
     CCDAJ52  C2024 11 29.94356 04 00 52.21 +02 16 15.7    ~BTNH 19.8 RXNEOCP511
     CCDAJ52  C2024 11 29.94723 04 00 54.49 +02 16 40.6    ~BTNH 19.1 RXNEOCP511
     CCDAJ52  C2024 11 29.95076 04 00 56.64 +02 17 04.1    ~BTNH 19.7 RXNEOCP511
     CCDAJ52  C2024 11 29.95253 04 00 57.76 +02 17 16.3    ~BTNH 20.0 RXNEOCP511
     CCDAJ52 KB2024 11 29.95909 04 01 01.60 +02 17 55.1    ~BTNl 19.6 VZNEOCP185
     CCDAJ52 KC2024 11 29.96304204 01 03.36 +02 18 24.2    ~BTNl 19.8 GVNEOCPL01
     CCDAJ52 KC2024 11 29.96576504 01 05.05 +02 18 42.5    ~BTNl 19.6 GVNEOCPL01
     CCDAJ52 KB2024 11 29.96733004 01 06.55 +02 18 52.1    ~BUB2       VNEOCP204
     CCDAJ52 KC2024 11 29.96854404 01 06.75 +02 19 01.2    ~BTNl 19.8 GVNEOCPL01
     CCDAJ52 KB2024 11 29.97620304 01 11.99 +02 19 51.5    ~BUB2       VNEOCP204
     CCDAJ52 KB2024 11 29.98538304 01 17.63 +02 20 52.6    ~BUB2 19.6 GVNEOCP204
     CCDAJ52 KC2024 11 29.98593104 01 17.62 +02 20 49.2    ~BU0H 19.5 GVNEOCPK62
     CCDAJ52 KC2024 11 29.98882804 01 19.44 +02 21 08.8    ~BU0H 19.7 GVNEOCPK62
     CCDAJ52 KC2024 11 29.99177504 01 21.24 +02 21 28.2    ~BU0H 19.2 GVNEOCPK62
     CCDAJ52 KC2024 11 29.99468804 01 23.05 +02 21 47.9    ~BU0H 19.6 GVNEOCPK62
     CCDAJ52 |C2024 11 30.18998004 03 29.500+02 45 53.00   ~BU8V 19.6 GVNEOCP807
     CCDAJ52 |C2024 11 30.19329004 03 31.450+02 46 14.30   ~BU8V 19.7 GVNEOCP807
     CCDAJ52 |C2024 11 30.19659004 03 33.410+02 46 35.90   ~BU8V 19.4 GVNEOCP807
     CCDAJ52 KC2024 11 30.21779604 03 48.03 +02 46 38.3    ~BU5l 19.7 GVNEOCPH21
     CCDAJ52 KC2024 11 30.22059204 03 49.70 +02 46 56.6    ~BU5l 19.8 GVNEOCPH21
     CCDAJ52 KC2024 11 30.22338904 03 51.37 +02 47 14.8    ~BU5l 19.8 GVNEOCPH21
     CCDAJ52 KC2024 11 30.22599804 03 52.91 +02 47 31.7    ~BU5l 20.0 GVNEOCPH21

Station data:
(033) Karl Schwarzschild Observatory, Tautenburg  (N50.980139 E11.711240)
   Germany.  Observer B. Stecklum. 1.34-m f/3 Schmidt + CCD.
(104) San Marcello Pistoiese  (N44.064178 E10.803750)  Italy.  Observers P.
   Bacci, M. Maestripieri. Measurers P. Bacci, L. Tesi, G. Fagioli. 0.60-m
   reflector + CCD.
(185) Observatoire astronomique jurassien  (N47.353045 E7.421900)
   Switzerland.  Observer M. Ory. 0.61-m f/3.88 reflector + CCD.
(204) Schiaparelli Observatory  (N45.868292 E8.769720)  Italy.  Observer L.
   Buzzi. 0.60-m f/4.64 Newtonian + CCD0.84-m f/3.5 reflector + CCD.
(511) Haute Provence  (N43.931873 E5.715700)  France.  Observers W.
   Polycarpe, M. Dennefield, W. Thuillot, B. Carry, P. David, S. Bouquillon,
   F. Taris, P. Tanga, M. Delbó, E. Saquet, V. Robert. Measurers W. Thuillot,
   S. Bouquillon, F. Taris, T. Carlucci, C. Barache. 1.20-m f/6 reflector +
   CCD.
(807) Cerro Tololo Observatory, La Serena  (S30.169133 W70.805900)  Chile.
   Observer R. Holmes. 0.61-m f/6.5 astrograph + CCD.
(G96) Mt. Lemmon Survey  (N32.442729 W110.788720)  US/Arizona.  Observer E.
   J. Christensen. 1.5-m reflector + 10K CCD.
(H21) Astronomical Research Observatory, Westfield  (N39.483054 W87.968270)
   US/Illinois.  Observer R. Holmes. Measurers S. Foglia, L. Buzzi, T.
   Linder, R. Holmes. 0.76-m f/3.0 astrograph + CCD0.81-m f/4.0 astrograph +
   CCD0.61-m f/4.5 astrograph + CCD0.40-m f/5.32 astrograph + CCD.
(I52) Steward Observatory, Mt. Lemmon Station  (N32.442570 W110.788920)
   US/Arizona.  Observers T. A. Pruyne, B. M. Africano, E. J. Christensen, G.
   A. Farneth, D. C. Fuls, A. R. Gibbs, A. D. Grauer, H. Gröller, J. A.
   Johnson, R. A. Kowalski, S. M. Larson, G. J. Leonard, D. Rankin, R. L.
   Seaman, F. C. Shelly, K. W. Wierzchoś. 1.0-m prime focus + CCD.
(K62) Teplice Observatory  (N50.638318 E13.846750)  Czech Republic.  Observer
   Z. Moravec. 0.43-m f/4.5 reflector + CCD.
(L01) Višnjan Observatory, Tičan  (N45.290897 E13.749300)  Croatia.
   Observers K. Korlević, D. Pujagic, V. Dobos. Measurers D. Pujagic, K.
   Korlević. 1.0-m f/2.9 reflector + CCD.
(M49) IAS Remote Observatory, Hakos  (S23.236549 E16.361720)  Namibia.
   Observers D. Husar, M. Junius. Measurer D. Husar. 0.25-m f/4.6 reflector +
   CCD.
(P13) Baihuashan Observatory, Beijing  (N39.837554 E115.573330)  China.

Orbital elements:  CCDAJ52
   Perihelion 2024 Nov 4.55828 +/- 0.0246 TT = 13:23:55 (JD 2460619.05828)
Epoch 2024 Nov 30.0 TT = JDT 2460644.5   Earth MOID: 0.0301   Ma: 0.0223
M   6.32382363 +/- 0.023            (J2000 ecliptic)             AutoNEOCP
n   0.24856113 +/- 0.00082          Peri.  286.29688 +/- 0.12
a   2.50522787 +/- 0.00551          Node   110.39265 +/- 0.08
e   0.6010507 +/- 0.000861          Incl.    1.77486 +/- 0.0040
P   3.96525                H 24.67  G  0.15   U  8.0
q 0.99945869 +/- 0.000123    Q 4.01099705 +/- 0.011
From 50 observations 2024 Nov. 29-30 (24.3 hr); mean residual 0".27
Residuals in arcseconds: 
241129 G96  .04+  .19+    241129 M49  .09-  .10+    241129 L01  .42-  .12-    
241129 G96  .14+  .01+    241129 033  .01+  .02+    241129 204  .18+  .14-    
241129 G96  .08-  .15+    241129 033  .11+  .02+    241129 L01  .55-  .00     
241129 G96  .13+  .04-    241129 033  .08+  .01+    241129 204  .00   .05-    
241129 I52  .48-  .52+    241129 M49  .07+  .12+    241129 204  .01+  .24-    
241129 I52  .36-  .60-    241129 185  .05-  .10-    241129 K62  .21-  .20-    
241129 I52  .08+  .10+    241129 104  .36-  .31+    241129 K62  .23+  .08+    
241129 I52  .03-  .62-    241129 104  .24+  .09-    241129 K62  .09-  .18-    
241129 I52  .65+  .07+    241129 104  .04+  .33-    241129 K62  .06+  .11+    
241129 I52  .49-  .06+    241129 511  .04+  .26+    241130 807  .16+  .24+    
241129 P13  .07+  .54-    241129 185  .18-  .13+    241130 807  .02-  .09-    
241129 P13  1.2+  .35+    241129 511  .36-  .39-    241130 807  .05+  .05-    
241129 P13  .19+  .06+    241129 511  .00   .10-    241130 H21  .06+  .07+    
241129 P13  .52+  .47+    241129 511  .29-  .26-    241130 H21  .14+  .12+    
241129 M49  .13+  .34+    241129 511  .21+  .08+    241130 H21  .22+  .06+    
241129 033  .01-  .08-    241129 185  .13-  .23+    241130 H21  .04+  .06-    
241129 033  .14-  .09+    241129 L01  .66-  .21-    

Ephemerides (geocentric):
Date (UTC) HH   RA             Dec           delta  r     elong  mag " sig PA
---- --------  ------------   ------------  ------ ------ -----  --- --------
2024 11 30 21  04 10 31.548   +03 57 01.54  .07582 1.0584 161.7 20.1 .233  61
2024 11 30 22  04 10 56.277   +04 01 15.82  .07598 1.0585 161.7 20.1 .253  61
2024 11 30 23  04 11 20.906   +04 05 29.04  .07614 1.0587 161.8 20.1 .274  60
2024 12 01 00  04 11 45.434   +04 09 41.22  .07631 1.0589 161.9 20.1 .295  59
2024 12 01 01  04 12 09.863   +04 13 52.35  .07647 1.0591 162.0 20.1 .317  59
2024 12 01 02  04 12 34.193   +04 18 02.44  .07664 1.0593 162.0 20.1 .339  58
2024 12 01 03  04 12 58.424   +04 22 11.50  .07680 1.0594 162.1 20.1 .362  58
2024 12 01 04  04 13 22.556   +04 26 19.52  .07697 1.0596 162.2 20.1 .386  58
2024 12 01 05  04 13 46.590   +04 30 26.51  .07713 1.0598 162.3 20.1 .410  58
2024 12 01 06  04 14 10.527   +04 34 32.48  .07730 1.0600 162.3 20.1 .434  57
2024 12 01 07  04 14 34.366   +04 38 37.42  .07747 1.0602 162.4 20.1 .459  57
2024 12 01 08  04 14 58.109   +04 42 41.34  .07763 1.0603 162.5 20.1 .484  57
2024 12 01 09  04 15 21.755   +04 46 44.24  .07780 1.0605 162.5 20.1 .510  57
2024 12 01 10  04 15 45.305   +04 50 46.14  .07797 1.0607 162.6 20.1 .537  57
2024 12 01 11  04 16 08.759   +04 54 47.02  .07814 1.0609 162.7 20.1 .564  56
2024 12 01 12  04 16 32.118   +04 58 46.89  .07831 1.0611 162.8 20.1 .591  56
2024 12 01 13  04 16 55.383   +05 02 45.77  .07848 1.0613 162.8 20.1 .619  56
